Klamath Falls, OR

10:39 PM PDT on August 24, 2016 (GMT -0700)
Klamath Falls International

Weather History for KLMT - January, 2013

Change the Weather History Date:

Sunday, January 13, 2013

  Actual Average Record
Temperature  
Mean Temperature 16 °F 30 °F  
Max Temperature 37 °F 39 °F 54 °F (1986)
Min Temperature -4 °F 21 °F -4 °F (2013)
Degree Days  
Heating Degree Days 48 35  
Month to date heating degree days 500 461  
Since 1 July heating degree days 3098 3362  
Cooling Degree Days 0 0  
Month to date cooling degree days 0 0  
Year to date cooling degree days 0 0  
Moisture  
Dew Point -5 °F    
Average Humidity 64    
Maximum Humidity 78    
Minimum Humidity 26    
Precipitation  
Precipitation 0.00 in 0.07 in 0.57 in (1980)
Month to date precipitation 0.12 1.08  
Year to date precipitation 0.12 1.08  
Snow  
Snow 0.00 in - - ()
Snow Depth 3.00 in    
Sea Level Pressure  
Sea Level Pressure 30.32 in    
Wind  
Wind Speed 0 mph (SE)    
Max Wind Speed 5 mph    
Max Gust Speed 7 mph    
Visibility 5 miles    
Events Fog    
T = Trace of Precipitation, MM = Missing Value Source: NWS Daily Summary

Daily Weather History Graph

Daily Weather History Graph

Search for Another Location

Airport or City:

Trip Planner

Search our weather history database for the weather conditions in past years. The results will help you decide how hot, cold, wet, or windy it might be!

Date:

Astronomy

Jan. 13, 2013 Rise Set
Actual Time 7:33 AM PST 4:58 PM PST
Civil Twilight 7:02 AM PST 5:29 PM PST
Nautical Twilight 6:27 AM PST 6:04 PM PST
Astronomical Twilight 5:54 AM PST 6:37 PM PST
Moon 8:32 AM PST (1/13) 7:46 PM PST (1/13)
Length of Visible Light 10h 26m
Length of Day
9h 24m
Waxing Crescent, 6% of the Moon is Illuminated
Jan 13
Waxing Crescent
Jan 18
First Quarter
Jan 26
Full
Feb 3
Last Quarter
Feb 9
New

Hourly Weather History & Observations

Time (PST) Temp. Windchill Dew Point Humidity Pressure Visibility Wind Dir Wind Speed Gust Speed Precip Events Conditions
12:53 AM -0.0 °F - -7.1 °F 72% 30.38 in 10.0 mi Calm Calm - N/A   Clear
1:53 AM -2.0 °F - -9.0 °F 72% 30.34 in 10.0 mi Calm Calm - N/A   Clear
2:53 AM -2.9 °F - -9.9 °F 72% 30.34 in 10.0 mi Calm Calm - N/A   Clear
3:53 AM 6.1 °F - -11.0 °F 45% 30.31 in 10.0 mi Calm Calm - N/A   Clear
4:14 AM -0.4 °F - -11.2 °F 60% 30.19 in 9.0 mi Calm Calm - N/A   Scattered Clouds
4:22 AM 5.0 °F -2.1 °F -9.4 °F 52% 30.19 in 4.0 mi ESE 3.5 mph - N/A   Haze
4:24 AM 5.0 °F -2.1 °F -7.6 °F 56% 30.19 in 1.8 mi ESE 3.5 mph - N/A   Haze
4:33 AM -0.4 °F - -5.8 °F 78% 30.19 in 0.2 mi Calm Calm - N/A   Haze
4:46 AM -0.4 °F - -7.6 °F 72% 30.19 in 0.2 mi Calm Calm - N/A   Haze
4:53 AM 8.1 °F - -7.1 °F 50% 30.33 in 0.5 mi Calm Calm - N/A   Haze
5:08 AM -0.4 °F - -7.6 °F 72% 30.19 in 2.0 mi Calm Calm - N/A   Haze
5:16 AM -0.4 °F - -7.6 °F 72% 30.19 in 5.0 mi Calm Calm - N/A   Haze
5:23 AM -0.4 °F - -7.6 °F 72% 30.19 in 1.8 mi Calm Calm - N/A   Haze
5:32 AM -0.4 °F - -7.6 °F 72% 30.19 in 3.0 mi Calm Calm - N/A   Haze
5:44 AM -2.2 °F - -7.6 °F 78% 30.19 in 1.8 mi Calm Calm - N/A   Haze
5:53 AM -0.9 °F - -7.1 °F 75% 30.39 in 0.8 mi Calm Calm - N/A   Haze
6:01 AM -0.4 °F - -7.6 °F 72% 30.21 in 0.2 mi Calm Calm - N/A Fog Light Freezing Fog
6:26 AM -0.4 °F - -7.6 °F 72% 30.21 in 0.2 mi Calm Calm - N/A Fog Light Freezing Fog
6:51 AM -2.2 °F - -7.6 °F 78% 30.22 in 0.2 mi Calm Calm - N/A Fog Light Freezing Fog
6:53 AM -2.0 °F - -9.0 °F 72% 30.44 in 0.2 mi Calm Calm - N/A Fog Light Freezing Fog
6:55 AM -2.2 °F - -9.4 °F 71% 30.22 in 3.0 mi Calm Calm - N/A Fog Light Freezing Fog
7:25 AM -2.2 °F - -9.4 °F 71% 30.23 in 0.8 mi Calm Calm - N/A   Scattered Clouds
7:48 AM -2.2 °F - -9.4 °F 71% 30.23 in 3.0 mi Calm Calm - N/A   Mostly Cloudy
7:53 AM -4.0 °F - -9.9 °F 76% 30.45 in 3.0 mi Calm Calm - N/A   Mostly Cloudy
8:02 AM -2.2 °F - -9.4 °F 71% 30.23 in 3.0 mi Calm Calm - N/A   Mostly Cloudy
8:53 AM 3.0 °F - -7.1 °F 63% 30.45 in 5.0 mi Calm Calm - N/A   Overcast
9:09 AM 3.2 °F - -4.0 °F 72% 30.25 in 5.0 mi Calm Calm - N/A   Overcast
9:53 AM 10.0 °F - -0.9 °F 61% 30.45 in 5.0 mi Calm Calm - N/A   Overcast
10:53 AM 18.0 °F - 1.9 °F 50% 30.43 in 10.0 mi Calm Calm - N/A   Scattered Clouds
11:53 AM 35.1 °F 32.2 °F 3.0 °F 26% 30.36 in 10.0 mi South 3.5 mph - N/A   Scattered Clouds
12:53 PM 26.1 °F - 5.0 °F 41% 30.38 in 10.0 mi Calm Calm - N/A   Scattered Clouds
1:53 PM 37.0 °F - 6.1 °F 28% 30.34 in 10.0 mi Calm Calm - N/A   Partly Cloudy
2:53 PM 30.0 °F - 6.1 °F 36% 30.37 in 10.0 mi Calm Calm - N/A   Partly Cloudy
3:53 PM 27.0 °F - 5.0 °F 39% 30.35 in 10.0 mi Calm Calm - N/A   Partly Cloudy
4:53 PM 18.0 °F - 3.9 °F 54% 30.38 in 10.0 mi Calm Calm - N/A   Partly Cloudy
5:53 PM 10.0 °F - 3.0 °F 73% 30.45 in 10.0 mi Calm Calm - N/A   Partly Cloudy
6:53 PM 9.0 °F - 1.9 °F 73% 30.47 in 7.0 mi Calm Calm - N/A   Partly Cloudy
7:53 PM 6.1 °F - -0.9 °F 73% 30.49 in 7.0 mi Calm Calm - N/A   Clear
8:53 PM 6.1 °F - -2.0 °F 69% 30.47 in 7.0 mi Calm Calm - N/A   Clear
9:53 PM 8.1 °F - -2.9 °F 61% 30.46 in 7.0 mi Calm Calm - N/A   Clear
10:53 PM 3.9 °F - -4.0 °F 70% 30.46 in 8.0 mi Calm Calm - N/A   Clear
11:53 PM 10.0 °F - -2.0 °F 58% 30.40 in 8.0 mi Calm Calm - N/A   Clear